FW3819 Weather Reports


time (UTC)temp
C
wind
direction
speed
KPH
gust
KPH
rain 1hr
cm
rain 24hr
cm
rain mn
cm
humidity
%
barometer
mb
20260510045101 13 89 0.0 4.8 0.00 0.00 0.00 90 1011.8
20260510044853 13 11 0.0 4.8 0.00 0.00 0.00 90 1011.8
20260510044103 13 234 0.0 1.6 0.00 0.00 0.00 90 1011.7
20260510043600 13 11 0.0 1.6 0.00 0.00 0.00 90 1011.8
20260510043101 13 11 0.0 1.6 0.00 0.00 0.00 90 1011.8
20260510042601 13 11 0.0 1.6 0.00 0.00 0.00 89 1011.6
20260510042102 13 54 0.0 1.6 0.00 0.00 0.00 89 1011.7
20260510041602 13 100 0.0 1.6 0.00 0.00 0.00 89 1011.7
20260510041102 13 11 0.0 1.6 0.00 0.00 0.00 89 1011.5
20260510040657 13 54 0.0 1.6 0.00 0.00 0.00 89 1011.7
20260510040636 13 54 0.0 1.6 0.00 0.00 0.00 89 1011.7
20260510035602 13 11 0.0 1.6 0.00 0.00 0.00 88 1011.6
20260510035102 14 54 0.0 1.6 0.00 0.00 0.00 88 1011.6
20260510034853 14 54 0.0 1.6 0.00 0.00 0.00 88 1011.5
20260510034103 14 54 0.0 1.6 0.00 0.00 0.00 87 1011.5
20260510033601 14 54 0.0 1.6 0.00 0.00 0.00 87 1011.5
20260510033103 14 54 0.0 1.6 0.00 0.00 0.00 87 1011.4
20260510032601 14 82 0.0 1.6 0.00 0.00 0.00 86 1011.5
20260510032101 14 11 0.0 1.6 0.00 0.00 0.00 86 1011.5
20260510031602 15 82 0.0 1.6 0.00 0.00 0.00 86 1011.6
20260510031101 15 54 0.0 1.6 0.00 0.00 0.00 86 1011.5
20260510030602 15 353 0.0 1.6 0.00 0.00 0.00 85 1011.5
20260510030103 15 353 0.0 1.6 0.00 0.00 0.00 85 1011.4
20260510025601 15 54 0.0 1.6 0.00 0.00 0.00 85 1011.5
20260510025101 15 11 0.0 1.6 0.00 0.00 0.00 84 1011.4
20260510024602 15 100 0.0 1.6 0.00 0.00 0.00 84 1011.4
20260510024102 15 54 0.0 1.6 0.00 0.00 0.00 84 1011.4
20260510023849 15 28 0.0 1.6 0.00 0.00 0.00 83 1011.3
20260510023103 15 11 0.0 1.6 0.00 0.00 0.00 82 1011.2
20260510022602 15 54 0.0 1.6 0.00 0.00 0.00 82 1011.2
20260510022102 16 54 0.0 1.6 0.00 0.00 0.00 82 1011.1
20260510021851 16 11 0.0 1.6 0.00 0.00 0.00 82 1011.0
20260510021352 16 234 0.0 1.6 0.00 0.00 0.00 81 1011.1
20260510020604 16 54 0.0 1.6 0.00 0.00 0.00 81 1011.0
20260510020100 16 11 0.0 1.6 0.00 0.00 0.00 81 1011.0
20260510015654 16 11 0.0 1.6 0.00 0.00 0.00 80 1010.9
20260510015634 16 54 0.0 1.6 0.00 0.00 0.00 80 1011.0
20260510014601 16 279 0.0 4.8 0.00 0.00 0.00 79 1010.9
20260510014103 16 279 0.0 4.8 0.00 0.00 0.00 79 1010.8
20260510013654 16 261 0.0 4.8 0.00 0.00 0.00 79 1010.6
20260510013636 16 11 0.0 4.8 0.00 0.00 0.00 79 1010.8
20260510012602 16 279 0.0 1.6 0.00 0.00 0.00 79 1010.6
20260510012103 16 234 0.0 1.6 0.00 0.00 0.00 78 1010.5
20260510011604 16 100 0.0 1.6 0.00 0.00 0.00 78 1010.3
20260510011448 17 100 0.0 4.8 0.00 0.00 0.00 76 1010.3
20260510011133 17 326 0.0 1.6 0.00 0.00 0.00 78 1010.3
20260510010103 17 82 0.0 4.8 0.00 0.00 0.00 76 1010.2
20260510005602 17 143 0.0 4.8 0.00 0.00 0.00 76 1010.1
20260510005103 17 54 0.0 1.6 0.00 0.00 0.00 76 1010.2
20260510004604 17 326 0.0 1.6 0.00 0.00 0.00 74 1010.0
20260510004103 18 54 0.0 1.6 0.00 0.00 0.00 73 1009.9
20260510003602 18 54 0.0 1.6 0.00 0.00 0.00 72 1009.9
20260510003102 18 54 0.0 1.6 0.00 0.00 0.00 71 1009.9
20260510002604 18 11 0.0 1.6 0.00 0.00 0.00 70 1009.9
20260510002101 18 11 0.0 4.8 0.00 0.00 0.00 69 1009.8
20260510001602 19 54 1.6 4.8 0.00 0.00 0.00 68 1009.8
20260510001102 19 241 0.0 4.8 0.00 0.00 0.00 67 1009.8
20260510000856 20 338 0.0 4.8 0.00 0.00 0.00 66 1009.7
20260509235603 20 54 1.6 4.8 0.00 0.00 0.00 64 1009.7
20260509235104 20 54 1.6 4.8 0.00 0.00 0.00 64 1009.7
20260509234853 20 54 0.0 4.8 0.00 0.00 0.00 63 1009.5
20260509234101 21 143 0.0 4.8 0.00 0.00 0.00 62 1009.4
20260509233602 21 326 1.6 4.8 0.00 0.00 0.00 61 1009.4
20260509233101 21 54 0.0 4.8 0.00 0.00 0.00 61 1009.4
20260509232853 21 100 0.0 1.6 0.00 0.00 0.00 61 1009.4
20260509232101 21 54 0.0 4.8 0.00 0.00 0.00 60 1009.4
20260509231601 21 11 0.0 4.8 0.00 0.00 0.00 58 1009.3
20260509231101 21 54 0.0 4.8 0.00 0.00 0.00 57 1009.3
20260509230601 22 73 0.0 4.8 0.00 0.00 0.00 57 1009.3
20260509225853 22 100 0.0 4.8 0.00 0.00 0.00 56 1009.4
20260509225105 22 100 0.0 1.6 0.00 0.00 0.00 56 1009.3
20260509224603 22 11 0.0 1.6 0.00 0.00 0.00 55 1009.4
20260509224102 22 100 1.6 4.8 0.00 0.00 0.00 54 1009.4
20260509223603 22 54 1.6 4.8 0.00 0.00 0.00 55 1009.3
20260509223102 22 89 1.6 6.4 0.00 0.00 0.00 56 1009.2
20260509222602 23 11 1.6 6.4 0.00 0.00 0.00 50 1009.2
20260509222104 23 188 0.0 4.8 0.00 0.00 0.00 50 1009.3
20260509221602 23 100 1.6 4.8 0.00 0.00 0.00 53 1009.3
20260509221402 23 54 1.6 4.8 0.00 0.00 0.00 52 1009.3
20260509220601 23 188 1.6 4.8 0.00 0.00 0.00 53 1009.3
20260509215603 23 11 1.6 8.0 0.00 0.00 0.00 51 1009.3
20260509215400 23 296 1.6 8.0 0.00 0.00 0.00 49 1009.3
20260509214602 23 166 3.2 8.0 0.00 0.00 0.00 48 1009.4
20260509214103 24 203 3.2 11.3 0.00 0.00 0.00 47 1009.3
20260509213603 24 158 3.2 11.3 0.00 0.00 0.00 45 1009.3
20260509213101 25 222 3.2 8.0 0.00 0.00 0.00 46 1009.3
20260509212600 25 143 1.6 8.0 0.00 0.00 0.00 46 1009.3
20260509212102 24 54 1.6 6.4 0.00 0.00 0.00 48 1009.3
20260509211601 23 82 1.6 6.4 0.00 0.00 0.00 49 1009.2
20260509211100 23 41 1.6 4.8 0.00 0.00 0.00 49 1009.3
20260509210601 23 11 1.6 4.8 0.00 0.00 0.00 51 1009.4
20260509205602 23 143 1.6 6.4 0.00 0.00 0.00 50 1009.4
20260509205102 23 143 3.2 12.9 0.00 0.00 0.00 48 1009.4
20260509204603 23 152 4.8 12.9 0.00 0.00 0.00 48 1009.4
20260509204359 24 188 4.8 14.5 0.00 0.00 0.00 48 1009.3
20260509203604 24 143 4.8 14.5 0.00 0.00 0.00 48 1009.3
20260509203058 23 166 4.8 17.7 0.00 0.00 0.00 46 1009.2
20260509202554 24 167 4.8 17.7 0.00 0.00 0.00 46 1009.2
20260509202054 24 150 3.2 14.5 0.00 0.00 0.00 45 1009.2
20260509201552 23 127 1.6 11.3 0.00 0.00 0.00 50 1009.2
20260509201052 23 37 3.2 12.9 0.00 0.00 0.00 50 1009.4
20260509200553 23 100 4.8 19.3 0.00 0.00 0.00 48 1009.5
20260509200054 23 192 3.2 19.3 0.00 0.00 0.00 46 1009.7
20260509195554 24 11 3.2 12.9 0.00 0.00 0.00 49 1009.7
20260509195052 24 222 3.2 12.9 0.00 0.00 0.00 51 1009.8
20260509194555 23 166 3.2 12.9 0.00 0.00 0.00 52 1009.9
20260509194054 23 11 3.2 14.5 0.00 0.00 0.00 53 1009.9
20260509193555 22 215 3.2 14.5 0.00 0.00 0.00 53 1009.9
20260509193051 22 100 1.6 14.5 0.00 0.00 0.00 54 1010.2
20260509192552 22 54 1.6 11.3 0.00 0.00 0.00 56 1010.2
20260509192049 22 82 3.2 17.7 0.00 0.00 0.00 53 1010.4
20260509191549 22 158 4.8 17.7 0.00 0.00 0.00 52 1010.4
20260509191050 22 152 3.2 12.9 0.00 0.00 0.00 54 1010.5
20260509190550 21 162 1.6 11.3 0.00 0.00 0.00 55 1010.5
20260509190050 22 178 1.6 6.4 0.00 0.00 0.00 53 1010.4
20260509185551 22 260 1.6 6.4 0.00 0.00 0.00 54 1010.4
20260509185048 22 132 1.6 6.4 0.00 0.00 0.00 56 1010.3
20260509184548 21 171 1.6 6.4 0.00 0.00 0.00 55 1010.3
20260509184050 21 271 1.6 6.4 0.00 0.00 0.00 57 1010.8
20260509183547 21 215 1.6 6.4 0.00 0.00 0.00 56 1010.7
20260509183047 21 82 1.6 6.4 0.00 0.00 0.00 56 1010.7
20260509182545 21 258 1.6 6.4 0.00 0.00 0.00 57 1010.8
20260509182046 21 279 1.6 4.8 0.00 0.00 0.00 57 1010.7
20260509181849 20 28 1.6 6.4 0.00 0.00 0.00 58 1010.9
20260509181046 20 234 3.2 11.3 0.00 0.00 0.00 59 1011.0
20260509180546 20 269 3.2 11.3 0.00 0.00 0.00 59 1011.2
20260509180047 20 150 3.2 11.3 0.00 0.00 0.00 57 1011.3
20260509175548 20 234 3.2 12.9 0.00 0.00 0.00 57 1011.4
20260509175041 20 205 4.8 12.9 0.00 0.00 0.00 56 1011.3
20260509174541 20 213 4.8 12.9 0.00 0.00 0.00 55 1011.3
20260509174336 20 171 4.8 17.7 0.00 0.00 0.00 55 1011.5
20260509173540 20 177 4.8 19.3 0.00 0.00 0.00 55 1011.5
20260509173338 20 162 4.8 19.3 0.00 0.00 0.00 56 1011.3
20260509172540 21 132 4.8 17.7 0.00 0.00 0.00 54 1011.4
20260509172343 21 155 4.8 14.5 0.00 0.00 0.00 53 1011.4
20260509171541 21 280 3.2 14.5 0.00 0.00 0.00 53 1011.4
20260509171041 20 137 4.8 19.3 0.00 0.00 0.00 54 1011.5
20260509170840 20 132 6.4 22.5 0.00 0.00 0.00 55 1011.6
20260509170041 20 177 6.4 22.5 0.00 0.00 0.00 54 1011.6
20260509165541 20 150 4.8 19.3 0.00 0.00 0.00 55 1011.5
20260509165038 20 187 3.2 12.9 0.00 0.00 0.00 56 1011.6
20260509164538 20 171 4.8 29.0 0.00 0.00 0.00 56 1011.7
20260509164040 20 135 4.8 29.0 0.00 0.00 0.00 57 1011.7
20260509163536 20 160 3.2 17.7 0.00 0.00 0.00 56 1011.6
20260509163038 20 171 1.6 8.0 0.00 0.00 0.00 59 1011.7
20260509162538 20 143 1.6 8.0 0.00 0.00 0.00 56 1011.6
20260509162035 20 54 1.6 6.4 0.00 0.00 0.00 57 1011.6
20260509161535 20 171 3.2 11.3 0.00 0.00 0.00 56 1011.6
20260509161034 20 153 3.2 11.3 0.00 0.00 0.00 55 1011.6
20260509160535 20 191 3.2 8.0 0.00 0.00 0.00 55 1011.7
20260509160034 21 172 3.2 12.9 0.00 0.00 0.00 53 1011.6
20260509155533 21 117 3.2 12.9 0.00 0.00 0.00 53 1011.7
20260509155334 21 162 3.2 11.3 0.00 0.00 0.00 55 1011.7
20260509154532 20 191 3.2 11.3 0.00 0.00 0.00 56 1011.8
20260509154032 20 279 1.6 11.3 0.00 0.00 0.00 55 1011.8
20260509153532 20 143 1.6 11.3 0.00 0.00 0.00 56 1012.0
20260509153033 19 41 1.6 8.0 0.00 0.00 0.00 57 1012.0
20260509152535 19 162 3.2 8.0 0.00 0.00 0.00 58 1012.0
20260509152033 19 41 1.6 8.0 0.00 0.00 0.00 59 1012.1
20260509151532 19 41 3.2 8.0 0.00 0.00 0.00 60 1012.1
20260509151033 18 143 1.6 6.4 0.00 0.00 0.00 61 1012.2
20260509150532 18 114 1.6 6.4 0.00 0.00 0.00 61 1012.3
20260509150330 18 37 1.6 6.4 0.00 0.00 0.00 61 1012.3
20260509145831 17 41 1.6 4.8 0.00 0.00 0.00 62 1012.4
20260509145033 17 143 1.6 4.8 0.00 0.00 0.00 63 1012.5
20260509144531 17 77 1.6 4.8 0.00 0.00 0.00 64 1012.5
20260509144030 17 107 1.6 6.4 0.00 0.00 0.00 64 1012.6
20260509143528 17 44 1.6 6.4 0.00 0.00 0.00 63 1012.7
20260509143029 17 54 1.6 4.8 0.00 0.00 0.00 65 1012.8
20260509142528 16 33 1.6 4.8 0.00 0.00 0.00 67 1012.8
20260509142029 16 54 1.6 4.8 0.00 0.00 0.00 65 1012.9
20260509141528 16 117 1.6 4.8 0.00 0.00 0.00 66 1012.8
20260509141026 16 143 1.6 4.8 0.00 0.00 0.00 65 1012.8
20260509140526 16 125 1.6 6.4 0.00 0.00 0.00 63 1012.8
20260509140323 16 54 1.6 6.4 0.00 0.00 0.00 63 1012.7
20260509135525 16 196 1.6 8.0 0.00 0.00 0.00 61 1012.6
20260509135024 16 129 1.6 8.0 0.00 0.00 0.00 62 1012.6
20260509134525 16 129 1.6 6.4 0.00 0.00 0.00 61 1012.8
20260509134025 16 171 1.6 4.8 0.00 0.00 0.00 65 1012.8
20260509133527 16 100 1.6 4.8 0.00 0.00 0.00 65 1012.8
20260509133025 16 73 1.6 6.4 0.00 0.00 0.00 64 1012.8
20260509132814 16 143 1.6 6.4 0.00 0.00 0.00 64 1012.8
20260509132027 16 89 1.6 6.4 0.00 0.00 0.00 64 1012.7
20260509131811 16 125 1.6 6.4 0.00 0.00 0.00 63 1012.8
20260509131015 16 143 1.6 6.4 0.00 0.00 0.00 62 1012.8
20260509130511 16 129 1.6 4.8 0.00 0.00 0.00 64 1012.8
20260509130009 16 234 1.6 6.4 0.00 0.00 0.00 64 1012.9
20260509125507 16 92 3.2 8.0 0.00 0.00 0.00 64 1012.9
20260509125009 16 155 3.2 8.0 0.00 0.00 0.00 62 1012.9
20260509124505 16 192 1.6 8.0 0.00 0.00 0.00 62 1012.7
20260509124302 16 171 1.6 8.0 0.00 0.00 0.00 63 1012.7
20260509123507 16 82 1.6 8.0 0.00 0.00 0.00 63 1012.6
20260509123003 15 188 1.6 6.4 0.00 0.00 0.00 62 1012.6
20260509122502 15 218 1.6 4.8 0.00 0.00 0.00 63 1012.6
20260509122259 15 54 1.6 8.0 0.00 0.00 0.00 62 1012.6
20260509121503 15 100 1.6 8.0 0.00 0.00 0.00 62 1012.7
20260509121303 15 110 1.6 6.4 0.00 0.00 0.00 63 1012.6
20260509120502 15 11 1.6 6.4 0.00 0.00 0.00 63 1012.6
20260509120004 15 54 1.6 8.0 0.00 0.00 0.00 63 1012.6
20260509115503 15 105 1.6 8.0 0.00 0.00 0.00 62 1012.5
20260509115003 15 264 1.6 6.4 0.00 0.00 0.00 62 1012.7
20260509114502 15 54 1.6 4.8 0.00 0.00 0.00 63 1012.7
20260509114002 15 11 1.6 6.4 0.00 0.00 0.00 63 1012.6
20260509113502 15 69 1.6 6.4 0.00 0.00 0.00 61 1012.6
20260509113002 15 143 1.6 6.4 0.00 0.00 0.00 60 1012.5
20260509112757 15 125 1.6 6.4 0.00 0.00 0.00 59 1012.5
20260509112001 15 143 1.6 6.4 0.00 0.00 0.00 58 1012.5
20260509111502 14 261 1.6 6.4 0.00 0.00 0.00 59 1012.4
20260509111002 14 100 1.6 8.0 0.00 0.00 0.00 59 1012.4
20260509110503 14 73 1.6 8.0 0.00 0.00 0.00 59 1012.4
20260509110001 14 100 0.0 4.8 0.00 0.00 0.00 61 1012.4
20260509105501 14 100 0.0 4.8 0.00 0.00 0.00 61 1012.4
20260509105301 14 326 0.0 4.8 0.00 0.00 0.00 62 1012.3
20260509104500 13 82 1.6 4.8 0.00 0.00 0.00 63 1012.4
20260509104004 13 100 1.6 4.8 0.00 0.00 0.00 65 1012.4
20260509103503 13 296 0.0 4.8 0.00 0.00 0.00 65 1012.3
20260509103004 13 54 1.6 1.6 0.00 0.00 0.00 63 1012.1
20260509102502 13 100 1.6 1.6 0.00 0.00 0.00 62 1011.9
20260509102252 13 82 0.0 1.6 0.00 0.00 0.00 61 1012.0
20260509101504 13 73 0.0 1.6 0.00 0.00 0.00 65 1012.2
20260509101000 13 89 0.0 1.6 0.00 0.00 0.00 64 1012.1
20260509100744 13 82 0.0 1.6 0.00 0.00 0.00 62 1012.0
20260509095956 13 54 0.0 4.8 0.00 0.00 0.00 61 1012.0
20260509095453 13 73 0.0 4.8 0.00 0.00 0.00 60 1011.9
20260509095249 13 11 0.0 1.6 0.00 0.00 0.00 60 1011.9
20260509094453 13 82 0.0 4.8 0.00 0.00 0.00 60 1011.9
20260509093954 13 279 1.6 4.8 0.00 0.00 0.00 59 1011.9
20260509093748 14 67 1.6 4.8 0.00 0.00 0.00 58 1011.9
20260509092953 14 73 1.6 4.8 0.00 0.00 0.00 57 1012.2
20260509092453 14 120 1.6 8.0 0.00 0.00 0.00 57 1012.2
20260509091954 14 89 1.6 8.0 0.00 0.00 0.00 55 1012.1
20260509091453 14 100 0.0 1.6 0.00 0.00 0.00 56 1012.2
20260509090952 14 89 1.6 8.0 0.00 0.00 0.00 55 1012.2
20260509090454 15 326 1.6 8.0 0.00 0.00 0.00 55 1012.2
20260509085951 15 114 1.6 8.0 0.00 0.00 0.00 55 1012.2
20260509085453 15 143 1.6 6.4 0.00 0.00 0.00 55 1012.3
20260509084951 15 158 1.6 8.0 0.00 0.00 0.00 54 1012.4
20260509084454 15 100 1.6 8.0 0.00 0.00 0.00 54 1012.4
20260509083946 14 94 1.6 8.0 0.00 0.00 0.00 54 1012.5
20260509083743 15 82 1.6 6.4 0.00 0.00 0.00 55 1012.5
20260509082944 15 117 1.6 6.4 0.00 0.00 0.00 54 1012.6
20260509082444 15 167 1.6 6.4 0.00 0.00 0.00 54 1012.5
20260509081944 15 117 1.6 8.0 0.00 0.00 0.00 54 1012.7
20260509081445 15 143 1.6 8.0 0.00 0.00 0.00 54 1012.7
20260509080944 15 171 1.6 6.4 0.00 0.00 0.00 53 1012.8
20260509080445 15 32 1.6 8.0 0.00 0.00 0.00 53 1012.9
20260509075942 15 241 1.6 8.0 0.00 0.00 0.00 53 1012.9
20260509075442 15 114 1.6 8.0 0.00 0.00 0.00 53 1012.9
20260509074943 15 234 3.2 12.9 0.00 0.00 0.00 53 1012.9
20260509074443 15 188 1.6 12.9 0.00 0.00 0.00 53 1012.9
20260509073939 15 125 1.6 12.9 0.00 0.00 0.00 54 1013.0
20260509073441 15 28 1.6 6.4 0.00 0.00 0.00 54 1013.0
20260509073238 15 279 1.6 8.0 0.00 0.00 0.00 54 1013.1
20260509072737 15 113 1.6 8.0 0.00 0.00 0.00 53 1012.9
20260509071940 14 143 1.6 8.0 0.00 0.00 0.00 54 1012.9
20260509071731 14 69 1.6 6.4 0.00 0.00 0.00 56 1012.9
20260509070938 14 113 1.6 6.4 0.00 0.00 0.00 57 1013.0
20260509070439 14 28 1.6 6.4 0.00 0.00 0.00 57 1012.9
20260509070240 14 54 1.6 6.4 0.00 0.00 0.00 56 1012.8
20260509065439 14 198 1.6 6.4 0.00 0.00 0.00 56 1013.0
20260509065230 14 143 1.6 6.4 0.00 0.00 0.00 58 1012.9
20260509064733 14 143 1.6 4.8 0.00 0.00 0.00 58 1013.0
20260509063940 14 54 1.6 4.8 0.00 0.00 0.00 58 1013.0
20260509063434 14 70 1.6 4.8 0.00 0.00 0.00 58 1013.0
20260509062934 13 205 1.6 4.8 0.00 0.00 0.00 60 1013.0
20260509062433 13 143 1.6 4.8 0.00 0.00 0.00 59 1013.2
20260509061936 13 54 0.0 4.8 0.00 0.00 0.00 60 1013.2
20260509061435 13 11 1.6 6.4 0.00 0.00 0.00 61 1013.2
20260509060935 13 143 1.6 6.4 0.00 0.00 0.00 62 1013.4
20260509060436 13 54 1.6 6.4 0.00 0.00 0.00 62 1013.2
20260509060236 13 92 0.0 4.8 0.00 0.00 0.00 64 1013.2
20260509055435 12 82 0.0 4.8 0.00 0.00 0.00 65 1013.2
20260509054929 12 82 1.6 4.8 0.00 0.00 0.00 67 1013.3
20260509054430 12 117 1.6 4.8 0.00 0.00 0.00 67 1013.2
20260509053930 12 54 1.6 4.8 0.00 0.00 0.00 68 1013.3
20260509053430 12 21 0.0 4.8 0.00 0.00 0.00 66 1013.3
20260509053227 13 54 0.0 4.8 0.00 0.00 0.00 65 1013.4
20260509052430 13 54 0.0 4.8 0.00 0.00 0.00 64 1013.4
20260509051930 13 100 0.0 4.8 0.00 0.00 0.00 64 1013.4
20260509051431 13 11 0.0 1.6 0.00 0.00 0.00 60 1013.4
20260509051223 13 54 0.0 1.6 0.00 0.00 0.00 59 1013.4
20260509050431 13 11 0.0 1.6 0.00 0.00 0.00 59 1013.3
20260509045929 13 11 0.0 1.6 0.00 0.00 0.00 58 1013.3